Regional Weather Roundup
Issued by NWS

Home | Current Version | Previous Version | Graphics & Text | Print | Product List | Glossary On
Versions: 1 2 3 4 5 6 7 8 9 10 11 12 13 14 15 16 17 18 19 20 21 22 23 24 25 26 27 28 29 30 31 32 33 34 35 36 37 38 39 40 41 42 43 44 45 46 47 48 49 50
013
ASUS45 KTFX 172110
RWRMT
MONTANA REGIONAL WEATHER ROUNDUP
NATIONAL WEATHER SERVICE GREAT FALLS MT
200 PM MST FRI NOV 17 2017

NOTE: "FAIR" INDICATES FEW OR NO CLOUDS BELOW 12000 FEET WITH NO
SIGNIFICANT WEATHER AND/OR OBSTRUCTIONS TO VISIBILITY.

MTZ001>007-043-172200-
WEST OF THE DIVIDE

CITY           SKY/WX    TMP DP  RH WIND       PRES   REMARKS
KALISPELL      CLOUDY    40  26  57 W14G20    29.80R
MISSOULA       PTSUNNY   41  24  51 W20G25    29.87R
BUTTE          PTSUNNY   33  15  47 W22G30    29.79R WCI  21
MULLAN PASS    FLURRIES  22  19  89 W9G16     29.83R WCI  12
ANACONDA         N/A     34  16  47 W23G31    29.79R WCI  22
EUREKA           N/A     43  21  42 MISG      29.79R
HAMILTON         N/A     39  21  48 CALM      29.89R
LIBBY            N/A     39  30  70 CALM      29.85R
RONAN            N/A     41  25  53 SW14      29.90R
$$

MTZ008-052>055-172200-
SOUTHWEST MONTANA

CITY           SKY/WX    TMP DP  RH WIND       PRES   REMARKS
BOZEMAN        FAIR      37  19  48 W10       29.78R WCI  30
DILLON         FAIR      34  16  47 W15       29.81R WCI  24
W YELLOWSTONE  FAIR      28  12  50 NW8G15    29.75R WCI  20
ENNIS          MOSUNNY   37  12  35 NW15      29.84R WCI  28
$$

MTZ009-010-012-014-046-048-049-054-172200-
EAST SLOPES AND CENTRAL MONTANA

CITY           SKY/WX    TMP DP  RH WIND       PRES   REMARKS
CUT BANK       FAIR      37  24  59 W33G40    29.62R WCI  24
GREAT FALLS    FAIR      41  16  36 W22G31    29.68R
MALMSTROM AFB  PTSUNNY   43  16  33 W26G35    29.69R
HELENA         FAIR      38  22  52 W26G35    29.76R WCI  26
BOWMANS CRNR   FAIR      36  20  51 W30G40    29.66S WCI  23
CHOTEAU          N/A     39  18  41 W26G36    29.66F WCI  28
FAIRFIELD      FAIR      39  20  45 W22       29.68R WCI  29
POWER          FAIR      40  15  35 W30       29.67R
RAYNESFORD     PTSUNNY   41  17  37 W23G35    29.68R
ULM            FAIR      42  17  36 SW22      29.70R
$$

MTZ011-013-016-021-045-047-050-051-172200-
NORTH CENTRAL MONTANA

CITY           SKY/WX    TMP DP  RH WIND       PRES   REMARKS
HAVRE          PTSUNNY   38  29  70 SW16      29.65R WCI  29
LEWISTOWN      PTSUNNY   40  19  43 NW24      29.66R
N BAR RANCH    FAIR      36  18  48 NW13G23   29.68R WCI  27
CHINOOK          N/A     43  27  52 W21       29.62F
DENTON         PTSUNNY   41  21  44 W18G31    29.63R
GEYSER         FAIR      39  17  41 W23G37    29.65R WCI  28
GRASS RANGE    FAIR      41  19  42 W21       29.62R
STANFORD       FAIR      41  15  35 W30G45    29.65R
WINIFRED       FAIR      41  19  41 W23       29.64R
$$

MTZ017>020-022>027-061-062-172200-
NORTHEAST MONTANA

CITY           SKY/WX    TMP DP  RH WIND       PRES   REMARKS
GLASGOW        PTSUNNY   38  25  59 NW6       29.62R
GLENDIVE       FAIR      44  31  60 SE9       29.62S
JORDAN           N/A     47  22  37 NW22      29.62R
SIDNEY         FAIR      39  25  57 SE3       29.63S
WOLF POINT     FAIR      41  26  55 CALM      29.63S
MALTA          SUNNY     34  25  69 CALM      29.64S
PLENTYWOOD       N/A     32  18  55 CALM      29.64S
POPLAR           N/A     39  25  56 CALM      29.63F
$$

MTZ028>42-056>058-172200-
SOUTHCENTRAL AND SOUTHEAST MONTANA

CITY           SKY/WX    TMP DP  RH WIND       PRES   REMARKS
BAKER          FAIR      43  33  68 W7        29.64R
BILLINGS       PTSUNNY   42  27  55 NW7       29.70R
LIVINGSTON     FAIR      41  16  36 W29       29.71S
MILES CITY     FAIR      49  32  52 W10       29.62F
BIG TIMBER     PTSUNNY   37  16  41 W24G31    29.74R WCI  26
FORSYTH          N/A     46  28  49 W13       29.63R
HARLOWTON      FAIR      37  20  50 W30G37    29.68R WCI  25
LAUREL           N/A     43  27  52 W9        29.71R
$$

REGIONAL REPORTS...DAKOTAS

CITY           SKY/WX    TMP DP  RH WIND       PRES   REMARKS
WILLISTON      FAIR      35  17  47 CALM      29.66R
MINOT          FAIR      27  13  55 CALM      29.68R
DICKINSON      FAIR      42  24  49 S6        29.62S
BEACH          PTSUNNY   43  32  65 SW7G13    29.66R
CROSBY         FAIR      23  12  63 VRB5      29.68R
TIOGA          FAIR      32  16  51 CALM      29.66R
WATFORD CITY   FAIR      36  19  51 CALM      29.64R
BISMARCK       FAIR      36  25  64 CALM      29.70R
GRAND FORKS    PTSUNNY   25  17  72 NW13      29.71R WCI  14
FARGO          FAIR      34  24  67 NW13      29.67R WCI  25
BUFFALO SD       N/A     44  33  65 W8        29.58S
RAPID CITY     CLOUDY    42  33  70 SE3       29.63F
$$

REGIONAL REPORTS...WYOMING/IDAHO/WASHINGTON

CITY           SKY/WX    TMP DP  RH WIND       PRES   REMARKS
GILLETTE       CLOUDY    36  32  85 SW6       29.64F WCI  31
SHERIDAN       CLOUDY    40  34  79 NW15      29.68R
BUFFALO WY     CLOUDY    33  30  88 S6        29.66R WCI  28
CODY           FAIR      38  30  73 N7        29.70R
YELLOWSTONE LA   N/A     21  18  88 NW6       29.74R WCI  13
IDAHO FALLS    PTSUNNY   38  32  79 SW21G30   29.83R WCI  28
SALMON         FAIR      39  19  44 NW25G33   29.93R HAZE    WCI  28
BOISE          PTSUNNY   46  25  43 NW23G30   30.07R
SPOKANE        FAIR      42  30  62 W18       29.95R
$$

REGIONAL REPORTS...ALBERTA

CITY           SKY/WX    TMP DP  RH WIND       PRES   REMARKS
EDMONTON       MOSUNNY    7   0  72 NW3       29.75R
CALGARY        LGT SNOW  10   5  79 NE3       29.65R
LETHBRIDGE     MOSUNNY   12   9  85 VRB2      29.68R
MEDICINE HAT   MOSUNNY   14   9  79 NW7       29.71R WCI   4
$$

REGIONAL REPORTS...SASKATCHEWAN

CITY           SKY/WX    TMP DP  RH WIND       PRES   REMARKS
SWIFT CURRENT  SUNNY     14   5  67 N7        29.64R WCI   4
REGINA         MOSUNNY    9   3  78 W8        29.70R WCI  -4
SASKATOON      CLOUDY    14   7  73 W16       29.72R WCI  -2
$$




USA.gov is the U.S. government's official web portal to all federal, state and local government web resources and services.